User: anonymous   Login
Location: Haliburton Scout Reserve
(45.0900°N, 78.3200°W)
Time: 22:39:28
(UTC-05:00)
Language:

IDEFIX/ARIANE 42P - Orbit

View from above orbital plane
View from above orbital plane
View from above satellite
View from above satellite

Ground track
Ground track

The orbit data is extracted from the following two-line orbital elements,

1 27422U 02021B   17021.14483191 -.00000062  00000-0 -84880-5 0  9997
2 27422  98.2277  29.5695 0011541 316.8568  43.1710 14.29252223765678
Epoch (UTC): 21 January 2017 03:28:33
Eccentricity: 0.0011541
inclination: 98.2277°
perigee height: 786 km
apogee height: 802 km
right ascension of ascending node: 29.5695°
argument of perigee: 316.8568°
revolutions per day: 14.29252223
mean anomaly at epoch: 43.1710°
orbit number at epoch: 76567

The dashed part of the orbit path shows where the satellite is in the earth's shadow,  

DLR